This demonstration page uses our WeatherBlox Daily Observations layout. Learn more.

Left ArrowRight Arrow

Hourly Observations for July 6, 2022

Temp ( °F °C ) Dew Point ( °F °C ) Humidity (%) Winds ( mph kmh ) Pressure ( in mb ) Visibility ( mi km ) Precip ( " mm )
12:53 am 00:53 Clear 61 16.1 48 8.9 63 63 ENE 3 6 29.96 1014 10 16 0.00 0.00
1:53 am 01:53 Clear 55 12.8 48 8.9 77 77 W 5 7 29.97 1015 10 16 0.00 0.00
2:53 am 02:53 Clear 55 12.8 48 8.9 77 77 E 5 7 29.98 1015 10 16 0.00 0.00
3:53 am 03:53 Clear 57 13.9 49 9.4 74 74 E 5 7 29.98 1015 10 16 0.00 0.00
4:53 am 04:53 Clear 54 12.2 49 9.4 83 83 Calm 30.01 1016 10 16 0.00 0.00
5:53 am 05:53 Sunny 55 12.8 48 8.9 77 77 ENE 3 6 30.03 1017 10 16 0.00 0.00
6:53 am 06:53 Sunny 58 14.4 49 9.4 72 72 Calm 30.04 1017 10 16 0.00 0.00
7:53 am 07:53 Partly Cloudy 62 16.7 49 9.4 62 62 ENE 6 9 30.03 1017 10 16 0.00 0.00
8:53 am 08:53 Mostly Cloudy 65 18.3 50 10 59 59 NE 7 11 30.04 1017 10 16 0.00 0.00
9:53 am 09:53 Mostly Cloudy 70 21.1 50 10 49 49 VRB 3 6 30.03 1017 10 16 0.00 0.00
10:53 am 10:53 Mostly Sunny 74 23.3 49 9.4 41 41 VRB 3 6 30.01 1016 10 16 0.00 0.00
11:53 am 11:53 Sunny 76 24.4 49 9.4 39 39 Calm 30.00 1016 10 16 0.00 0.00
12:53 pm 12:53 Mostly Sunny 80 26.7 48 8.9 33 33 W 7 11 29.98 1015 10 16 0.00 0.00
1:53 pm 13:53 Mostly Sunny 79 26.1 45 7.2 30 30 VRB 3 6 29.98 1015 10 16 0.00 0.00
2:53 pm 14:53 Sunny 79 26.1 46 7.8 31 31 Calm 29.96 1015 10 16 0.00 0.00
3:53 pm 15:53 Mostly Cloudy 80 26.7 45 7.2 29 29 VRB 5 7 29.93 1014 10 16 0.00 0.00
4:53 pm 16:53 Sunny 79 26.1 49 9.4 35 35 S 5 7 29.94 1014 10 16 0.00 0.00
5:53 pm 17:53 Mostly Cloudy 77 25 51 10.6 40 40 SSW 7 11 29.93 1014 10 16 0.00 0.00
6:41 pm 18:41 Mostly Cloudy with Thunderstorms 75 23.9 48 8.9 39 39 SSW 10 17 29.68 1005 10 16 0.00 0.00
6:53 pm 18:53 Mostly Cloudy with Thunderstorms 75 23.9 47 8.3 37 37 WSW 9 15 29.96 1015 10 16 0.00 0.00
7:05 pm 19:05 Cloudy with Light Rain 74 23.3 48 8.9 40 40 NNW 13 20 29.71 1006 10 16 0.00 0.00
7:53 pm 19:53 Mostly Cloudy with Light Rain 66 18.9 51 10.6 59 59 ESE 8 13 30.00 1016 10 16 0.00 0.00
8:53 pm 20:53 Clear 66 18.9 46 7.8 49 49 Calm 29.97 1015 10 16 0.00 0.00
9:53 pm 21:53 Mostly Clear 61 16.1 47 8.3 60 60 Calm 29.97 1015 10 16 0.00 0.00
10:53 pm 22:53 Mostly Clear 60 15.6 49 9.4 67 67 E 7 11 29.98 1015 10 16 0.00 0.00
11:53 pm 23:53 Mostly Clear 56 13.3 49 9.4 77 77 Calm 30.00 1016 10 16 0.00 0.00

Powered by AerisWeather